Weather History for Friday Harbor, WA

Change the Weather History Date:

Tuesday, March 5, 2013

  Actual Average Record
Temperature  
Mean Temperature 42 °F -  
Max Temperature 48 °F 47 °F 55 °F (2007)
Min Temperature 36 °F 35 °F 28 °F (1999)
Degree Days  
Heating Degree Days 23    
Moisture  
Dew Point 33 °F    
Average Humidity 71    
Maximum Humidity 93    
Minimum Humidity 50    
Precipitation  
Precipitation 0.00 in - - ()
Sea Level Pressure  
Sea Level Pressure 29.84 in    
Wind  
Wind Speed 3 mph (NNE)    
Max Wind Speed 10 mph    
Max Gust Speed -    
Visibility 10 miles    
Events Rain    
Averages and records for this station are not official NWS values.
T = Trace of Precipitation, MM = Missing Value Source: NWS Daily Summary

Daily Weather History Graph

Daily Weather History Graph

Search for Another Location

Airport:

Trip Planner

Search our weather history database for the weather conditions in past years. The results will help you decide how hot, cold, wet, or windy it might be!

Date:

Astronomy

Mar. 05, 2013 Rise Set
Actual Time 6:44 AM PST 6:02 PM PST
Civil Twilight 6:13 AM PST 6:34 PM PST
Nautical Twilight 5:37 AM PST 7:10 PM PST
Astronomical Twilight 5:00 AM PST 7:47 PM PST
Moon 2:24 AM PST (3/5) 11:25 AM PST (3/5)
Length of Visible Light 12h 20m
Length of Day
11h 17m
Last Quarter, 39% of the Moon is Illuminated
Mar 5
Last Quarter
Mar 11
New
Mar 19
First Quarter
Mar 27
Full
Apr 2
Last Quarter

Hourly Weather History & Observations

Time (PST) Temp. Windchill Dew Point Humidity Pressure Visibility Wind Dir Wind Speed Gust Speed Precip Events Conditions
12:53 AM 36.0 °F - 30.0 °F 79% 29.95 in 10.0 mi Calm Calm - N/A   Clear
1:53 AM 37.0 °F - 30.0 °F 76% 29.94 in 10.0 mi Calm Calm - N/A   Clear
2:53 AM 37.0 °F - 30.0 °F 76% 29.92 in 10.0 mi Calm Calm - N/A   Scattered Clouds
3:53 AM 37.9 °F 35.5 °F 30.0 °F 73% 29.89 in 10.0 mi North 3.5 mph - N/A   Mostly Cloudy
5:53 AM 44.1 °F 38.6 °F 28.0 °F 53% 29.86 in 10.0 mi NE 10.4 mph - N/A   Overcast
6:53 AM 44.1 °F 40.8 °F 28.0 °F 53% 29.85 in 10.0 mi NE 5.8 mph - N/A   Overcast
7:53 AM 43.0 °F 38.8 °F 28.9 °F 58% 29.85 in 10.0 mi North 6.9 mph - 0.00 in   Overcast
8:53 AM 44.1 °F - 28.9 °F 55% 29.87 in 10.0 mi Calm Calm - N/A   Overcast
9:53 AM 46.9 °F - 28.9 °F 50% 29.87 in 10.0 mi ENE 8.1 mph - N/A   Overcast
10:53 AM 46.9 °F - 30.9 °F 54% 29.86 in 10.0 mi ENE 6.9 mph - N/A   Overcast
11:53 AM 48.0 °F - 30.9 °F 52% 29.85 in 10.0 mi ENE 5.8 mph - N/A   Overcast
12:53 PM 48.0 °F - 30.0 °F 50% 29.83 in 10.0 mi North 8.1 mph - N/A   Overcast
1:53 PM 48.0 °F - 32.0 °F 54% 29.82 in 10.0 mi NNE 6.9 mph - N/A   Overcast
2:53 PM 48.0 °F - 32.0 °F 54% 29.81 in 10.0 mi ENE 3.5 mph - N/A   Overcast
3:53 PM 46.9 °F - 33.1 °F 59% 29.79 in 10.0 mi North 6.9 mph - N/A   Overcast
4:53 PM 46.0 °F - 35.1 °F 66% 29.80 in 10.0 mi Calm Calm - N/A   Overcast
5:53 PM 45.0 °F - 36.0 °F 71% 29.81 in 10.0 mi Calm Calm - 0.00 in Rain Light Rain
6:53 PM 42.1 °F - 39.9 °F 92% 29.82 in 7.0 mi Calm Calm - 0.00 in Rain Light Rain
7:39 PM 42.8 °F 40.1 °F 39.2 °F 87% 29.82 in 7.0 mi NNW 4.6 mph - 0.00 in Rain Light Rain
7:53 PM 42.1 °F 39.2 °F 39.0 °F 89% 29.82 in 7.0 mi North 4.6 mph - 0.00 in Rain Light Rain
8:53 PM 41.0 °F 39.0 °F 39.0 °F 93% 29.81 in 10.0 mi NNW 3.5 mph - 0.00 in Rain Light Rain
9:53 PM 41.0 °F 39.0 °F 39.0 °F 93% 29.81 in 10.0 mi NNW 3.5 mph - 0.00 in   Overcast
10:08 PM 41.0 °F - 39.2 °F 93% 29.80 in 10.0 mi Calm Calm - N/A   Overcast
10:53 PM 39.9 °F 37.8 °F 37.9 °F 93% 29.79 in 10.0 mi North 3.5 mph - N/A   Mostly Cloudy
11:53 PM 41.0 °F 35.2 °F 39.0 °F 93% 29.77 in 10.0 mi North 9.2 mph - N/A   Mostly Cloudy